sat.trackr.live / text

‹ back to catalog

STARLINK-30897

NORAD 58360 · 2023-177K

PAYLOAD ACTIVE UNKNOWN

§ Identity

Operator
Country
US
Launch date
2023-11-18
Launch site
AFETR
Launch vehicle
Mass (kg)
RCS (m²)

Purposes: comms

External: N2YO · Heavens-Above · Gunter

§ Orbital elements

Epoch: 2026-09-19T22:35:27.565728Z

Period
94.27 min
Inclination
43.0044°
Eccentricity
0.0001243
Mean motion
15.27573548 rev/d
Perigee alt
482.2 km
Apogee alt
483.9 km
Semi-major
6,861.2 km
B*
-1.0564e-5
RAAN
348.2176°
Arg perigee
270.5639°
Mean anomaly
89.5070°
Rev number
15,776

§ Raw data

STARLINK-308971 58360U 23177K   26262.94129127 -.00000553  00000+0 -10564-4 0  99992 58360  43.0044 348.2176 0001243 270.5639  89.5070 15.27573548157764

JSON: /api/v1/satellites/58360 · /tle

For live sub-satellite position, see the globe view (requires WebGL).

§ Visibility from observer

Set your observer location to see the next 7 days of passes ≥ 10°. The values pass through the URL so the page stays shareable.

No JS? Fill the form by hand. The geolocation button needs JavaScript.